STARLINK-32465, 61716

Orbit data source: Space-Track

STARLINK-32465, 61716 is a payload satellite owned by SpaceX/Seattle (US) in LEO that was launched on Wed, 30 Oct 2024 UTC via an FALCON 9 launch vehicle from the Air Force Eastern Test Range (AFETR). Payload-class satellites include a variety of spacecraft equipped with specific instruments for various scientific and technological missions. These include communications satellites like Starlink; space stations such as the ISS; scientific satellites like the Hubble; Earth observation satellites from companies like Planet Labs, Umbra, and HawkEye 360; GPS; miniature CubeSats for education and research; and military/defense satellites.

Loading next visibility...
Identifier
61716, 2024-196K
Orbit
LEO
Country
Flag of USUS
Related business
Manufacturer
SpaceX/Seattle
Mission
Operational Commercial Communications
Bus & Motor
STARLINK V2M, Unknown motor
Mass
730 kg wet, ~700 kg dry
Launch date (UTC)
2024-10-30 (10 months ago)
Launch vehicle
FALCON 9
Launch site
Air Force Eastern Test Range (AFETR)
Object type
Payload
Rocket body
Debris
Shape & HBR
Box + 2 Pan, 14.5 m
Radar Cross Section
36.964 m², Large (>1 m²)

Expand to show TLE details & history
Last TLE update: 23 hours ago

TLE from 23 hours ago
0 STARLINK-32465
1 61716U 24196K   25241.80129321 -.00000146  00000-0  72085-5 0  9992
2 61716  53.1598 272.9246 0001185  95.0067 265.1069 15.30189588 47770
Epoch: 2025-08-29T19:13Z
TLE epoch observation values (Epoch: 2025-08-29T19:13:51.733Z)
Latitude
-0.00002°
Longitude
6.2143°
Altitude
476.215 km
Speed
7.629 km/s
True Right ascension
18h 11m 41s
True Declination
0° 00' 00"
Sunlit
Object was in full shadow at epoch
Visualization orbit readout
Latitude
Unknown
Longitude
Unknown
Altitude
Unknown
Speed
Unknown
Apparent Right ascension
Unknown
Apparent Declination
Unknown
Sunlit
N/A
Visualization observer readout
Local Sidereal Time
09:22:56
Azimuth
Unknown
Elevation
Unknown
Doppler factor
Unknown
Orbital elements
Apogee altitude
476.315 km
Perigee altitude
474.69 km
Semi-major axis
6,853.64 km
Eccentricity
0.00012
Inclination
53.1598°
RAAN
272.9246°
Arg. of periapsis
95.0067°
True anomaly
265.09337°
Mean anomaly
265.1069°
Eccentric anomaly
265.10014°
Mean motion
3.82526 °/min
Orbital period
94.11 mins
BSTAR
0.0000072085
Loading maneuver chart data...
Computing Atmospheric mass density...
Loading historical data...
Loading historical data...
Loading historical data...
Loading historical data...
Loading historical data...
Loading historical data...
Loading historical data...

Documentation

Showing up to 5 results
|